Mitchell, SD

7:28 AM CDT on July 28, 2017 (GMT -0500)
Mitchell Municipal

Weather History for KMHE - February, 2013

Change the Weather History Date:

Tuesday, February 19, 2013

  Actual Average Record
Temperature  
Mean Temperature 2 °F 25 °F  
Max Temperature 7 °F 35 °F 67 °F (1996)
Min Temperature -3 °F 15 °F -26 °F (1959)
Degree Days  
Heating Degree Days 63 40  
Month to date heating degree days 758 810  
Since 1 July heating degree days 5039 5177  
Cooling Degree Days 0 0  
Month to date cooling degree days 0 0  
Year to date cooling degree days 0 0  
Moisture  
Dew Point -6 °F    
Average Humidity 70    
Maximum Humidity 76    
Minimum Humidity 63    
Precipitation  
Precipitation 0.00 in 0.01 in 1.05 in (1971)
Month to date precipitation 1.07 0.23  
Year to date precipitation 1.29 0.45  
Snow  
Snow 0.00 in - 11.00 in (1971)
Month to date snowfall 11.1  
Since 1 July snowfall 24.3  
Snow Depth 6.00 in    
Sea Level Pressure  
Sea Level Pressure 30.43 in    
Wind  
Wind Speed 16 mph (NNW)    
Max Wind Speed 30 mph    
Max Gust Speed 36 mph    
Visibility 10 miles    
Events      
T = Trace of Precipitation, MM = Missing Value Source: NWS Daily Summary

Daily Weather History Graph

Daily Weather History Graph

Search for Another Location

Airport or City:

Trip Planner

Search our weather history database for the weather conditions in past years. The results will help you decide how hot, cold, wet, or windy it might be!

Date:

Astronomy

Feb. 19, 2013 Rise Set
Actual Time 7:24 AM CST 6:08 PM CST
Civil Twilight 6:55 AM CST 6:37 PM CST
Nautical Twilight 6:21 AM CST 7:10 PM CST
Astronomical Twilight 5:48 AM CST 7:44 PM CST
Moon 12:34 PM CST (2/19) 3:03 AM CST (2/19)
Length of Visible Light 11h 42m
Length of Day
10h 43m
Waxing Gibbous, 67% of the Moon is Illuminated
Feb 19
Waxing Gibbous
Feb 25
Full
Mar 4
Last Quarter
Mar 11
New
Mar 19
First Quarter

Hourly Weather History & Observations

Time (CST) Temp. Windchill Dew Point Humidity Pressure Visibility Wind Dir Wind Speed Gust Speed Precip Events Conditions
12:53 AM 7.0 °F -14.9 °F -0.9 °F 70% 30.27 in 10.0 mi NW 25.3 mph 31.1 mph N/A   Overcast
1:53 AM 6.1 °F -15.7 °F -0.9 °F 73% 30.28 in 10.0 mi NW 24.2 mph 31.1 mph N/A   Overcast
2:53 AM 5.0 °F -18.3 °F -2.9 °F 70% 30.31 in 10.0 mi NW 27.6 mph - N/A   Overcast
3:53 AM 3.9 °F -19.8 °F -4.0 °F 70% 30.32 in 10.0 mi NW 27.6 mph 32.2 mph N/A   Overcast
4:12 AM 3.2 °F -19.0 °F -5.8 °F 66% 30.24 in 10.0 mi NW 23.0 mph - N/A   Scattered Clouds
4:53 AM 1.0 °F -22.8 °F -6.0 °F 72% 30.34 in 10.0 mi NNW 25.3 mph 32.2 mph N/A   Clear
5:53 AM -0.9 °F -24.5 °F -9.0 °F 69% 30.38 in 10.0 mi NNW 23.0 mph 33.4 mph N/A   Clear
6:53 AM -2.0 °F -23.3 °F -9.0 °F 72% 30.41 in 10.0 mi NNW 17.3 mph - N/A   Partly Cloudy
7:53 AM -2.9 °F -25.6 °F -9.9 °F 72% 30.43 in 10.0 mi NNW 19.6 mph - N/A   Partly Cloudy
8:53 AM -2.0 °F -25.5 °F -9.9 °F 69% 30.46 in 10.0 mi NW 21.9 mph - N/A   Clear
9:53 AM -0.9 °F -23.0 °F -9.9 °F 66% 30.48 in 10.0 mi NW 19.6 mph - N/A   Clear
10:53 AM 1.0 °F -19.3 °F -8.0 °F 66% 30.48 in 10.0 mi NNW 17.3 mph - N/A   Clear
12:53 PM 3.0 °F -14.8 °F -6.0 °F 66% 30.50 in 10.0 mi NNW 13.8 mph - N/A   Clear
1:53 PM 3.9 °F -14.3 °F -5.1 °F 66% 30.48 in 10.0 mi NNW 15.0 mph - N/A   Clear
2:53 PM 6.1 °F -10.2 °F -4.0 °F 63% 30.48 in 10.0 mi NNW 12.7 mph - N/A   Clear
3:53 PM 6.1 °F -10.9 °F -2.9 °F 67% 30.47 in 10.0 mi North 13.8 mph - N/A   Clear
4:53 PM 6.1 °F -8.7 °F -4.0 °F 63% 30.47 in 10.0 mi NNW 10.4 mph - N/A   Clear
6:53 PM 1.9 °F -9.2 °F -5.1 °F 72% 30.49 in 10.0 mi NNW 5.8 mph - N/A   Clear
7:53 PM 1.0 °F -10.3 °F -6.0 °F 72% 30.48 in 10.0 mi NNE 5.8 mph - N/A   Clear
8:53 PM -0.0 °F -14.2 °F -7.1 °F 72% 30.50 in 10.0 mi North 8.1 mph - N/A   Clear
9:53 PM -0.9 °F -14.1 °F -8.0 °F 72% 30.49 in 10.0 mi NNE 6.9 mph - N/A   Clear
10:53 PM -2.0 °F -15.4 °F -9.0 °F 72% 30.51 in 10.0 mi NNE 6.9 mph - N/A   Clear
11:53 PM -2.9 °F -11.2 °F -9.0 °F 75% 30.51 in 10.0 mi NW 3.5 mph - N/A   Clear